Regional Weather Roundup
Issued by NWS

Home | Current Version | Previous Version | Text Only | Print | Product List | Glossary Off
Versions: 1 2 3 4 5 6 7 8 9 10 11 12 13 14 15 16 17 18 19 20 21 22 23 24 25 26 27 28 29 30 31 32 33 34 35 36 37 38 39 40 41 42 43 44 45 46 47 48 49 50

000
ASUS43 KMPX 131001
RWRMN
WEATHER ROUNDUP FOR MINNESOTA
NATIONAL WEATHER SERVICE TWIN CITIES/CHANHASSEN MN
500 AM CDT SUN JUL 13 2014


NOTE: "FAIR" INDICATES FEW OR NO CLOUDS BELOW 12,000 FEET WITH NO
SIGNIFICANT WEATHER AND/OR OBSTRUCTIONS TO VISIBILITY. N/A MEANS
CURRENT SKY AND/OR WEATHER CONDITIONS ARE NOT AVAILABLE.

MNZ060>063-068>070-131100-
   Twin Cities Metro

CITY           SKY/WX    TMP DP  RH WIND       PRES   REMARKS
TWIN CITIES    PTCLDY    65  63  93 NW5       29.92R
ST PAUL        CLEAR     64  62  93 NW6       29.92R
CRYSTAL        CLEAR     64  59  83 NW5       29.91R
BLAINE         CLEAR     63  61  94 NW5       29.92R
LAKEVILLE      PTCLDY    64  63  94 W6        29.92R
EDEN PRAIRIE   CLEAR     66  62  87 N7        29.91R
SOUTH ST PAUL  PTCLDY    66  63  89 NW3       29.92R
LAKE ELMO      FAIR      63  61  94 CALM      29.92R
$$
MNZ001>005-007-008-013>017-022>024-027-028-131100-
   Northwest Minnesota

CITY           SKY/WX    TMP DP  RH WIND       PRES   REMARKS
BEMIDJI        FOG       52  52  99 W5        29.93R VSB 1
HALLOCK        PTCLDY    55  54  94 N3        29.90R
ROSEAU         MOCLDY    55  48  76 W10       29.90F
WARROAD        MOCLDY    54  50  87 W10G17    29.88F
THIEF RVR FALL MOCLDY    54  54 100 SW7       29.92S
CROOKSTON      CLEAR     50  48  93 W5        29.93S
FOSSTON        CLOUDY    52  52 100 W6        29.95S FOG
DETROIT LAKES  CLOUDY    55  55 100 CALM      29.97S VSB 1/2
MOORHEAD       CLEAR     55  55 100 CALM      29.97S
PARK RAPIDS    PTCLDY    49  48  97 W3        29.94S
$$
MNZ006-009>011-018-025>026-131100-
   North Central Minnesota

CITY           SKY/WX    TMP DP  RH WIND       PRES   REMARKS
BAUDETTE       CLOUDY    54  49  83 VRB3      29.88S
FLAG ISLAND    CLEAR     54  48  82 W13G20    29.83S
INTL FALLS     CLEAR     49  46  90 W7        29.85S
WASKISH        MOCLDY    61  54  77 W15       29.89S
BIG FORK       CLEAR     48  46  93 SW1       29.90S
LONGVILLE      CLEAR     48  48 100 CALM      29.92F FOG
GRAND RAPIDS   CLEAR     52  48  87 W5        29.91R
CRANE LAKE     CLEAR     46  46 100 CALM      29.86F
ORR            CLEAR     46  45  93 CALM      29.85S
COOK           CLEAR     48  46  93 CALM      29.88S
$$
MNZ012-019>021-037-131100-
   Northeast Minnesota

CITY           SKY/WX    TMP DP  RH WIND       PRES   REMARKS
DULUTH         PTCLDY    53  50  89 NW10      29.88R
ELY            CLEAR     48  46  93 W5        29.85S
HIBBING        CLEAR     48  46  93 W3        29.89S
EVELETH        CLEAR     52  50  93 W5        29.88F
DULUTH HARBOR  CLEAR     59  54  82 W8        29.89R
TWO HARBORS    CLEAR     52  46  82 W5        29.84S
SILVER BAY     CLEAR     52  52 100 CALM      29.83R
GRAND MARAIS     N/A     54  47  77 CALM      29.78R
G MARAIS ARPRT CLEAR     48  45  87 NW7       29.81R
$$
MNZ029>031-032-039>041-046>048-054>057-064-131100-
   West Central Minnesota

CITY           SKY/WX    TMP DP  RH WIND       PRES   REMARKS
FERGUS FALLS   CLEAR     55  54  94 CALM      29.97S
WHEATON        CLEAR     55  54  94 CALM      30.00S
MORRIS         CLEAR     55  54  94 NW5       29.97S
ALEXANDRIA     CLEAR     58  55  90 NW6       29.97S
ELBOW LAKE     FAIR      57  55  94 N6        29.97S
WADENA         CLEAR     54  52  94 W5        29.95S
GLENWOOD       CLEAR     55  54  94 NW3       29.97S
APPLETON       CLEAR     55  54  94 NW6       29.98R
BENSON         CLEAR     55  54  94 NW3       29.98R
ORTONVILLE     CLEAR     57  54  88 W3        29.99S
MADISON        CLEAR     63  57  82 NW7       29.99R
WILLMAR        FAIR      59  54  82 NW6       29.98R
$$
MNZ033>034-036-042>043-049>051-058-059-131100-
   Central Minnesota

CITY           SKY/WX    TMP DP  RH WIND       PRES   REMARKS
ST CLOUD       CLEAR     59  54  83 NW5       29.94R
SAUK CENTRE    FAIR      54  52  92 CALM      29.96S
PAYNESVILLE    PTCLDY    54  53  94 CALM      29.96R
AITKIN         CLEAR     52  46  82 CALM      29.91S HAZE
PINE RIVER     CLEAR     52  52 100 CALM      29.97S
BRAINERD       CLEAR     59  51  75 W3        29.94S
STAPLES        CLEAR     52  52 100 CALM      29.95S
LONG PRAIRIE   FAIR      54  52  94 W3        29.96S
LITTLE FALLS   CLEAR     55  50  82 CALM      29.94S
LITCHFIELD     CLEAR     63  57  82 NW5       29.96R
BUFFALO        CLEAR     62  56  80 NW5       29.95R
MAPLE LAKE     CLEAR     62  58  88 NW5       29.95R
$$
MNZ037-044-045-052-053-131100-
   East Central Minnesota

CITY           SKY/WX    TMP DP  RH WIND       PRES   REMARKS
PRINCETON      CLEAR     59  55  88 NW5       29.93S
MORA           CLEAR     55  52  88 CALM      29.94R
CAMBRIDGE      CLEAR     61  52  72 CALM      29.91R
RUSH CITY      MOCLDY    58  54  86 CALM      29.93R
MOOSE LAKE     CLEAR     52  50  93 CALM      29.89S
HINCKLEY       FAIR      55  54  94 NW5       29.92R
CLOQUET        CLEAR     52  48  87 W5        29.90R
MCGREGOR       CLEAR     54  52  94 W3        29.92S
$$
MNZ071>073-080-081-089-090-097-098-131100-
   Southwest Minnesota

CITY           SKY/WX    TMP DP  RH WIND       PRES   REMARKS
MONTEVIDEO     CLEAR     61  57  88 N7        29.99R
GRANITE FALLS  CLEAR     60  58  92 W6        29.99R
CANBY          CLEAR     59  56  91 NW6       30.01R
MARSHALL       CLEAR     63  57  82 NW7       29.98R
REDWOOD FALLS  CLEAR     65  62  90 NW8       29.97R
OLIVIA         CLEAR     61  59  94 NW5       29.96R
PIPESTONE      CLEAR     63  61  94 W6        30.01S
WINDOM         CLEAR     64  61  88 W6        29.99S
WORTHINGTON    CLEAR     66  63  88 SW6       30.02S
JACKSON        CLEAR     64  61  88 SW7       30.00S
TRACY          CLEAR     66  62  89 NW8       30.00R
SLAYTON        CLEAR     64  63  94 CALM      30.01S
$$
MNZ065>067-074>077-082>085-091>093-131100-
   South Central Minnesota

CITY           SKY/WX    TMP DP  RH WIND       PRES   REMARKS
MANKATO        CLEAR     66  61  82 W9        29.94S
NEW ULM        CLEAR     64  64 100 NW9       29.95R
ST JAMES       CLEAR     66  63  88 W8        29.97R
FAIRMONT       CLEAR     66  61  82 W7        29.97S
GLENCOE        CLEAR     65  61  85 NW6       29.94R
FARIBAULT      PTCLDY    70  63  78 W7        29.93S
OWATONNA       PTCLDY    64  63  94 SW8       29.94S
WASECA         CLEAR     61  57  88 SW3       29.96S
ALBERT LEA     CLEAR     64  63  94 SW7       29.96S
$$
MNZ078>079-086>088-094>096-131100-
   Southeast Minnesota

CITY           SKY/WX    TMP DP  RH WIND       PRES   REMARKS
ROCHESTER      CLEAR     64  62  93 SW8       29.95S
RED WING       CLEAR     63  63 100 CALM      29.89R
STANTON        CLEAR     67  63  87 W7        29.91R
DODGE CENTER   CLEAR     63  63 100 SW8       29.94F
WINONA           N/A     63  61  94 CALM      29.91S FOG
AUSTIN         CLEAR     63  61  94 SW3       29.95S FOG
PRESTON        CLEAR     64  64  97 W9        29.95S
$$
ABBREVIATIONS USED IN REMARKS
   TC - TEMPERATURES IN CELSIUS
  WCI - WIND CHILL INDEX
   HX - HEAT INDEX
  VSB - VISIBILITY
$$


USA.gov is the U.S. government's official web portal to all federal, state and local government web resources and services.